DW9761 Weather Reports


Display with metric or nautical units.
time (UTC)temp
F
wind
direction
speed
MPH
gust
MPH
rain 1hr
in
rain 24hr
in
rain mn
in
humidity
%
barometer
mb
20260504044530 54 150 5.0 8.0 0.00 0.00 0.00 81 1008.1
20260504043030 54 178 3.0 8.0 0.00 0.00 0.00 80 1008.2
20260504041529 55 200 3.0 7.0 0.00 0.00 0.00 79 1008.4
20260504040028 56 175 4.0 7.0 0.00 0.00 0.00 76 1008.3
20260504034533 56 215 4.0 8.0 0.00 0.00 0.00 75 1008.3
20260504033044 56 169 4.0 8.0 0.00 0.00 0.00 75 1008.5
20260504031531 56 167 3.0 7.0 0.00 0.00 0.00 75 1008.6
20260504030027 57 178 5.0 8.0 0.00 0.00 0.00 74 1008.4
20260504024541 57 205 4.0 7.0 0.00 0.00 0.00 74 1008.5
20260504023026 58 182 4.0 7.0 0.00 0.00 0.00 71 1008.7
20260504021525 60 189 3.0 5.0 0.00 0.00 0.00 67 1008.6
20260504020025 61 209 2.0 4.0 0.00 0.00 0.00 66 1008.4
20260504014524 60 198 2.0 5.0 0.00 0.00 0.00 68 1008.4
20260504013024 61 220 1.0 4.0 0.00 0.00 0.00 65 1008.4
20260504011524 64 225 2.0 5.0 0.00 0.00 0.00 60 1008.2
20260504010027 64 259 2.0 4.0 0.00 0.00 0.00 60 1008.2
20260504004537 64 259 2.0 3.0 0.00 0.00 0.00 60 1008.1
20260504003022 64 277 0.0 4.0 0.00 0.00 0.00 60 1008.0
20260504001522 65 242 4.0 8.0 0.00 0.00 0.00 58 1007.9
20260504000021 66 256 3.0 8.0 0.00 0.00 0.00 57 1008.0
20260503234521 66 255 3.0 9.0 0.00 0.00 0.00 55 1008.0
20260503233024 67 272 3.0 12.0 0.00 0.00 0.00 52 1008.2
20260503231520 68 215 11.0 19.0 0.00 0.00 0.00 49 1007.9
20260503230017 67 229 9.0 17.0 0.00 0.00 0.00 49 1007.9
20260503224515 67 231 9.0 20.0 0.00 0.00 0.00 49 1008.1
20260503223014 67 209 13.0 27.0 0.00 0.00 0.00 49 1008.0
20260503221512 66 214 12.0 20.0 0.00 0.00 0.00 48 1008.3
20260503220014 66 231 9.0 22.0 0.00 0.00 0.00 50 1008.2
20260503214508 66 211 13.0 29.0 0.00 0.00 0.00 50 1007.9
20260503213008 64 220 15.0 25.0 0.00 0.00 0.00 52 1008.2
20260503211506 64 163 15.0 24.0 0.00 0.00 0.00 51 1008.3
20260503210005 64 173 18.0 28.0 0.00 0.00 0.00 55 1008.1
20260503204502 63 213 14.0 25.0 0.00 0.00 0.00 52 1008.9
20260503203004 63 180 20.0 38.0 0.00 0.00 0.00 51 1008.6
20260503201559 63 196 18.0 28.0 0.00 0.00 0.00 51 1009.4
20260503200058 64 184 22.0 35.0 0.00 0.00 0.00 50 1009.4
20260503194555 62 212 22.0 38.0 0.00 0.00 0.00 53 1010.0
20260503193058 62 155 24.0 35.0 0.00 0.00 0.00 51 1009.8
20260503191555 62 198 21.0 36.0 0.00 0.00 0.00 50 1009.6
20260503190058 62 173 22.0 36.0 0.00 0.00 0.00 50 1010.2
20260503184601 62 163 17.0 30.0 0.00 0.00 0.00 51 1010.6
20260503183045 62 159 15.0 29.0 0.00 0.00 0.00 53 1011.4
20260503181542 62 207 19.0 29.0 0.00 0.00 0.00 53 1012.4
20260503180037 60 193 13.0 26.0 0.00 0.00 0.00 54 1013.0
20260503174554 60 177 12.0 23.0 0.00 0.00 0.00 55 1013.5
20260503173034 59 205 15.0 25.0 0.00 0.00 0.00 55 1013.7
20260503171533 59 198 14.0 26.0 0.00 0.00 0.00 55 1014.0
20260503081508 42 174 4.0 8.0 0.00 0.00 0.00 79 1017.4
20260503071559 42 181 3.0 6.0 0.00 0.00 0.00 77 1017.6